sat.trackr.live / text

‹ back to catalog

HULIANWANG DIGUI-168

NORAD 68660 · 2026-076E

PAYLOAD ACTIVE UNKNOWN

§ Identity

Operator
Country
PRC
Launch date
2026-04-08
Launch site
TAISC
Launch vehicle
Mass (kg)
RCS (m²)

External: N2YO · Heavens-Above · Gunter

§ Orbital elements

Epoch: 2026-05-24T15:10:43.251456Z

Period
107.86 min
Inclination
86.4926°
Eccentricity
0.0005583
Mean motion
13.35080239 rev/d
Perigee alt
1,123.5 km
Apogee alt
1,131.9 km
Semi-major
7,505.8 km
B*
-5.6957e-4
RAAN
51.8114°
Arg perigee
147.0687°
Mean anomaly
213.0802°
Rev number
624

§ Raw data

HULIANWANG DIGUI-1681 68660U 26076E   26144.63244504 -.00000272  00000+0 -56957-3 0  99992 68660  86.4926  51.8114 0005583 147.0687 213.0802 13.35080239  6249

JSON: /api/v1/satellites/68660 · /tle

For live sub-satellite position, see the globe view (requires WebGL).

§ Visibility from observer

Set your observer location to see the next 7 days of passes ≥ 10°. The values pass through the URL so the page stays shareable.

No JS? Fill the form by hand. The geolocation button needs JavaScript.